Zurück zum Katalog

FENGYUN 1C DEB

LostPO
NORAD 37025·DEBRIS·🇨🇳 China

Gestartet May 10, 1999 von Taiyuan Satellite Launch Center

Loading…

Nächste Überflüge (nächste 24 Stunden)

TLE

VeraltetSource: Space-Track

Epoche: Aug 19, 2014, 15:52 UTC

1 37025U 99025EDH 14231.66147259  .00001861  00000-0  10143-2 0  9990
2 37025  98.2449  15.7667 0059936 192.5604 232.0798 14.12334731365796

Verfolge FENGYUN 1C DEB in Echtzeit mit AllMySat

Download on the App Store